sat.trackr.live / text

‹ back to catalog

STARLINK-4062

NORAD 53261 · 2022-086V

PAYLOAD ACTIVE UNKNOWN

§ Identity

Operator
Country
US
Launch date
2022-07-24
Launch site
AFETR
Launch vehicle
Mass (kg)
RCS (m²)

Purposes: comms

External: N2YO · Heavens-Above · Gunter

§ Orbital elements

Epoch: 2026-09-20T00:12:44.455968Z

Period
93.85 min
Inclination
53.1616°
Eccentricity
0.0001283
Mean motion
15.34393228 rev/d
Perigee alt
461.8 km
Apogee alt
463.6 km
Semi-major
6,840.9 km
B*
1.1179e-4
RAAN
27.7125°
Arg perigee
69.9840°
Mean anomaly
290.1300°
Rev number
23,059

§ Raw data

STARLINK-40621 53261U 22086V   26263.00884787  .00003402  00000+0  11179-3 0  99962 53261  53.1616  27.7125 0001283  69.9840 290.1300 15.34393228230599

JSON: /api/v1/satellites/53261 · /tle

For live sub-satellite position, see the globe view (requires WebGL).

§ Visibility from observer

Set your observer location to see the next 7 days of passes ≥ 10°. The values pass through the URL so the page stays shareable.

No JS? Fill the form by hand. The geolocation button needs JavaScript.